Regional Weather Roundup
Issued by NWS Newport/Morehead, NC

Current Version | Previous Version | Text Only | Print | Product List | Glossary On
Versions: 1 2 3 4 5 6 7 8 9 10 11 12 13 14 15 16 17 18 19 20 21 22 23 24 25 26 27 28 29 30 31 32 33 34 35 36 37 38 39 40 41 42 43 44 45 46 47 48 49 50
912
ASUS42 KMHX 172013
RWRMHX
WEATHER ROUNDUP FOR EASTERN NORTH CAROLINA
NATIONAL WEATHER SERVICE NEWPORT/MOREHEAD CITY NC
300 PM EST SAT FEB 17 2018

NOTE: "FAIR" INDICATES FEW OR NO CLOUDS BELOW 12,000 FEET
WITH NO SIGNIFICANT WEATHER AND/OR OBSTRUCTIONS TO VISIBILITY

NCZ015>017-031-032-045>047-102-103-172100-
NORTH COAST

CITY           SKY/WX    TMP DP  RH WIND       PRES   REMARKS
EDENTON        CLOUDY    46  44  90 E7        30.16F FOG
ELIZABETH CITY LGT RAIN  45  43  93 E9        30.17F FOG
KITTY HAWK     DRIZZLE  N/A N/A N/A CALM      30.14F
MANTEO         CLOUDY    46  44  95 NE10      30.16F FOG

$$

NCZ045>047-081-094-103-104-172100-
CENTRAL COAST

CITY           SKY/WX    TMP DP  RH WIND       PRES   REMARKS
FRISCO         CLOUDY    51  48  89 VRB7      30.13F

$$

NCZ095-097-098-100-101-172100-
SOUTHERN COAST

CITY           SKY/WX    TMP DP  RH WIND       PRES   REMARKS
BEAUFORT       CLOUDY    53  45  74 NE9       30.12F
CEDAR ISLAND   NOT AVBL
JACKSONVILLE   CLOUDY    53  45  74 NE7       30.13F
PINEY ISLAND   NOT AVBL
WILMINGTON     CLOUDY    53  47  79 E8        30.12F


$$

NCZ011>013-027>030-043-044-078>080-089-090>093-098-172100-
COASTAL PLAIN

CITY           SKY/WX    TMP DP  RH WIND       PRES   REMARKS
AHOSKIE        DRIZZLE   44  42  93 E6        30.16F
CLINTON        CLOUDY    52  43  71 CALM      30.16R
ELIZABETHTOWN  NOT AVBL
GOLDSBORO      CLOUDY    49  41  74 NE6       30.14S
GREENVILLE     CLOUDY    46  43  87 E7        30.16F
HAVELOCK       CLOUDY    52  45  77 E8        30.14F
KENANSVILLE    CLOUDY    50  43  76 E3        30.14F
KINSTON        CLOUDY    48  43  81 E6        30.16F
NEW BERN       CLOUDY    50  42  74 E9        30.16F
RICHLANDS      CLOUDY    52  45  77 NE7       30.14F
ROCKY MOUNT    LGT RAIN  45  41  86 CALM      30.15F FOG
WASHINGTON     CLOUDY    46  44  93 E7        30.15F
WHITEVILLE     LGT RAIN  55  48  76 CALM      30.12F

$$

AMZ130-135-150-152-154-156-158-170-250-252-270-ANZ085-086-088-633-658-670-172100-
MARINE OBSERVATIONS

STATION/POSITION TIME  TEMP    WIND        PRES    WAVE   SWELL
                       AIR SEA DIR/SP/G            HT/PER HT/PER
                 (UTC) (F)     (DEG/KT/KT) (MB)    (FT/S) (FT/S)
CHESAPEAKE LIGHT NOT AVBL
64 E VA BEACH    1950   50 50   90/ 14/ 16 1021.7    5/ 7   3/ 7
DUCK             1948   44 44   30/  7/  8 1021.0
2 E DUCK         2000      45                N/A     5/ 7
OREGON INLET     1936   46 49   10/  7/  9 1021.2
13E OREGON INLT  1948      45                N/A     6/ 7   5/ 7
HATTERAS CG      1948   51 58   50/  7/ 12 1020.1
DIAMOND BUOY     1950   64 70  130/ 14/ 19 1020.3    5/ 9   3/ 9
CAPE LOOKOUT     2000           50/ 14/ 16 1020.0
BEAUFORT LAB     1948   53 54   50/  4/ 11 1020.1
30 SE NEW RVR IN 1908   58 68   90/ 16/ 19 1020.0
30 SE NEW RVR IN 2000      68                N/A     5/ 6   2/11
27 SE WRIGHTSVLE 1908   62 66   90/ 16/ 23 1019.9
5 SE WRIGHTSVLE  1908   53 53   60/ 12/ 17 1020.6
225 S CAPE HAT   1950   72 73  150/  6/  8 1020.0    5/ 7   5/ 7
41 SE CHARLESTON 2000   69     330/  6/  8 1019.0

$$




USA.gov is the U.S. government's official web portal to all federal, state and local government web resources and services.